Tracking 18843 objects as of 20-November-2017
HD Live streaming from Space Station
objects crossing your sky now

FENGYUN 1C DEB

Track FENGYUN 1C DEB now!
10-day predictions


NORAD ID: 31516
Int'l Code: 1999-025BXF
Perigee: 716.0 km
Apogee: 945.8 km
Inclination: 98.8 °
Period: 101.4 minutes
Semi major axis: 7201 km
RCS: 0.0097 m2 (small)
Launch date: May 10, 1999
Source: People's Republic of China (PRC)
Launch site: Taiyaun Space Center, China (TSC)

Note: This is SATELLITE DEBRIS
aabbcc
Your satellite tracking list
Your tracking list is empty




NASA's NSSDC Master Catalog

Two Line Element Set (TLE):
1 31516U 99025BXF 17323.43511840  .00000225  00000-0  11006-3 0  9993
2 31516  98.7933  49.8257 0159559  93.8188 330.9092 14.20463987546682
Source of the keplerian elements: AFSPC